Year,Month,Day,Hour,Minute,Value (Times are PST for temperature in C)
2009,07,24,00,00,14.10
2009,07,24,00,01,14.20
2009,07,24,00,02,14.20
2009,07,24,00,03,14.20
2009,07,24,00,04,14.20
2009,07,24,00,05,14.20
2009,07,24,00,06,14.20
2009,07,24,00,07,14.20
2009,07,24,00,08,14.20
2009,07,24,00,09,14.20
2009,07,24,00,10,14.20
2009,07,24,00,11,14.20
2009,07,24,00,12,14.20
2009,07,24,00,13,14.20
2009,07,24,00,14,14.20
2009,07,24,00,15,14.30
2009,07,24,00,16,14.30
2009,07,24,00,17,14.30
2009,07,24,00,18,14.40
2009,07,24,00,19,14.40
2009,07,24,00,20,14.40
2009,07,24,00,21,14.40
2009,07,24,00,22,14.40
2009,07,24,00,23,14.40
2009,07,24,00,24,14.40
2009,07,24,00,25,14.40
2009,07,24,00,26,14.40
2009,07,24,00,27,14.40
2009,07,24,00,28,14.40
2009,07,24,00,29,14.50
2009,07,24,00,30,14.50
2009,07,24,00,31,14.50
2009,07,24,00,32,14.50
2009,07,24,00,33,14.50
2009,07,24,00,34,14.50
2009,07,24,00,35,14.50
2009,07,24,00,36,14.60
2009,07,24,00,37,14.60
2009,07,24,00,38,14.60
2009,07,24,00,39,14.60
2009,07,24,00,40,14.60
2009,07,24,00,41,14.60
2009,07,24,00,42,14.60
2009,07,24,00,43,14.60
2009,07,24,00,44,14.60
2009,07,24,00,45,14.60
2009,07,24,00,46,14.60
2009,07,24,00,47,14.60
2009,07,24,00,48,14.60
2009,07,24,00,49,14.60
2009,07,24,00,50,14.60
2009,07,24,00,51,14.60
2009,07,24,00,52,14.50
2009,07,24,00,53,14.50
2009,07,24,00,54,14.50
2009,07,24,00,55,14.40
2009,07,24,00,56,14.30
2009,07,24,00,57,14.30
2009,07,24,00,58,14.30
2009,07,24,00,59,14.20
2009,07,24,01,00,14.20
2009,07,24,01,01,14.20
2009,07,24,01,02,14.20
2009,07,24,01,03,14.10
2009,07,24,01,04,14.10
2009,07,24,01,05,14.10
2009,07,24,01,06,14.00
2009,07,24,01,07,14.00
2009,07,24,01,08,14.00
2009,07,24,01,09,13.90
2009,07,24,01,10,13.90
2009,07,24,01,11,13.90
2009,07,24,01,12,13.90
2009,07,24,01,13,13.80
2009,07,24,01,14,13.80
2009,07,24,01,15,13.80
2009,07,24,01,16,13.80
2009,07,24,01,17,13.70
2009,07,24,01,18,13.70
2009,07,24,01,19,13.70
2009,07,24,01,20,13.70
2009,07,24,01,21,13.60
2009,07,24,01,22,13.60
2009,07,24,01,23,13.50
2009,07,24,01,24,13.50
2009,07,24,01,25,13.50
2009,07,24,01,26,13.50
2009,07,24,01,27,13.40
2009,07,24,01,28,13.40
2009,07,24,01,29,13.40
2009,07,24,01,30,13.40
2009,07,24,01,31,13.40
2009,07,24,01,32,13.40
2009,07,24,01,33,13.40
2009,07,24,01,34,13.40
2009,07,24,01,35,13.40
2009,07,24,01,36,13.40
2009,07,24,01,37,13.50
2009,07,24,01,38,13.50
2009,07,24,01,39,13.50
2009,07,24,01,40,13.50
2009,07,24,01,41,13.50
2009,07,24,01,42,13.50
2009,07,24,01,43,13.50
2009,07,24,01,44,13.50
2009,07,24,01,45,13.40
2009,07,24,01,46,13.40
2009,07,24,01,47,13.40
2009,07,24,01,48,13.40
2009,07,24,01,49,13.40
2009,07,24,01,50,13.40
2009,07,24,01,51,13.40
2009,07,24,01,52,13.40
2009,07,24,01,53,13.40
2009,07,24,01,54,13.40
2009,07,24,01,55,13.40
2009,07,24,01,56,13.40
2009,07,24,01,57,13.40
2009,07,24,01,58,13.40
2009,07,24,01,59,13.30
2009,07,24,02,00,13.30
2009,07,24,02,01,13.30
2009,07,24,02,02,13.30
2009,07,24,02,03,13.30
2009,07,24,02,04,13.30
2009,07,24,02,05,13.20
2009,07,24,02,06,13.10
2009,07,24,02,07,13.10
2009,07,24,02,08,13.00
2009,07,24,02,09,13.00
2009,07,24,02,10,12.90
2009,07,24,02,11,12.90
2009,07,24,02,12,12.80
2009,07,24,02,13,12.80
2009,07,24,02,14,12.80
2009,07,24,02,15,12.70
2009,07,24,02,16,12.70
2009,07,24,02,17,12.60
2009,07,24,02,18,12.60
2009,07,24,02,19,12.50
2009,07,24,02,20,12.50
2009,07,24,02,21,12.50
2009,07,24,02,22,12.40
2009,07,24,02,23,12.40
2009,07,24,02,24,12.40
2009,07,24,02,25,12.40
2009,07,24,02,26,12.40
2009,07,24,02,27,12.40
2009,07,24,02,28,12.40
2009,07,24,02,29,12.40
2009,07,24,02,30,12.40
2009,07,24,02,31,12.40
2009,07,24,02,32,12.40
2009,07,24,02,33,12.40
2009,07,24,02,34,12.50
2009,07,24,02,35,12.50
2009,07,24,02,36,12.50
2009,07,24,02,37,12.50
2009,07,24,02,38,12.50
2009,07,24,02,39,12.50
2009,07,24,02,40,12.50
2009,07,24,02,41,12.50
2009,07,24,02,42,12.50
2009,07,24,02,43,12.40
2009,07,24,02,44,12.40
2009,07,24,02,45,12.40
2009,07,24,02,46,12.40
2009,07,24,02,47,12.40
2009,07,24,02,48,12.40
2009,07,24,02,49,12.40
2009,07,24,02,50,12.40
2009,07,24,02,51,12.40
2009,07,24,02,52,12.40
2009,07,24,02,53,12.30
2009,07,24,02,54,12.30
2009,07,24,02,55,12.30
2009,07,24,02,56,12.30
2009,07,24,02,57,12.30
2009,07,24,02,58,12.30
2009,07,24,02,59,12.30
2009,07,24,03,00,12.30
2009,07,24,03,01,12.30
2009,07,24,03,02,12.30
2009,07,24,03,03,12.30
2009,07,24,03,04,12.30
2009,07,24,03,05,12.30
2009,07,24,03,06,12.30
2009,07,24,03,07,12.30
2009,07,24,03,08,12.20
2009,07,24,03,09,12.20
2009,07,24,03,10,12.20
2009,07,24,03,11,12.20
2009,07,24,03,12,12.10
2009,07,24,03,13,12.20
2009,07,24,03,14,12.10
2009,07,24,03,15,12.10
2009,07,24,03,16,12.10
2009,07,24,03,17,12.10
2009,07,24,03,18,12.10
2009,07,24,03,19,12.10
2009,07,24,03,20,12.10
2009,07,24,03,21,12.10
2009,07,24,03,22,12.10
2009,07,24,03,23,12.10
2009,07,24,03,24,12.10
2009,07,24,03,25,12.10
2009,07,24,03,26,12.10
2009,07,24,03,27,12.10
2009,07,24,03,28,12.10
2009,07,24,03,29,12.10
2009,07,24,03,30,12.10
2009,07,24,03,31,12.10
2009,07,24,03,32,12.10
2009,07,24,03,33,12.10
2009,07,24,03,34,12.10
2009,07,24,03,35,12.10
2009,07,24,03,36,12.20
2009,07,24,03,37,12.20
2009,07,24,03,38,12.20
2009,07,24,03,39,12.20
2009,07,24,03,40,12.20
2009,07,24,03,41,12.20
2009,07,24,03,42,12.20
2009,07,24,03,43,12.20
2009,07,24,03,44,12.20
2009,07,24,03,45,12.20
2009,07,24,03,46,12.20
2009,07,24,03,47,12.20
2009,07,24,03,48,12.20
2009,07,24,03,49,12.20
2009,07,24,03,50,12.20
2009,07,24,03,51,12.20
2009,07,24,03,52,12.20
2009,07,24,03,53,12.20
2009,07,24,03,54,12.20
2009,07,24,03,55,12.10
2009,07,24,03,56,12.10
2009,07,24,03,57,12.10
2009,07,24,03,58,12.10
2009,07,24,03,59,12.10
2009,07,24,04,00,12.10
2009,07,24,04,01,12.00
2009,07,24,04,02,12.00
2009,07,24,04,03,12.00
2009,07,24,04,04,12.00
2009,07,24,04,05,12.00
2009,07,24,04,06,12.00
2009,07,24,04,07,12.00
2009,07,24,04,08,12.00
2009,07,24,04,09,12.00
2009,07,24,04,10,12.00
2009,07,24,04,11,11.90
2009,07,24,04,12,11.90
2009,07,24,04,13,11.90
2009,07,24,04,14,11.90
2009,07,24,04,15,11.90
2009,07,24,04,16,11.90
2009,07,24,04,17,11.90
2009,07,24,04,18,11.90
2009,07,24,04,19,11.90
2009,07,24,04,20,11.90
2009,07,24,04,21,11.90
2009,07,24,04,22,11.90
2009,07,24,04,23,11.90
2009,07,24,04,24,11.90
2009,07,24,04,25,11.90
2009,07,24,04,26,11.90
2009,07,24,04,27,11.90
2009,07,24,04,28,11.90
2009,07,24,04,29,11.90
2009,07,24,04,30,11.90
2009,07,24,04,31,11.90
2009,07,24,04,32,11.90
2009,07,24,04,33,11.90
2009,07,24,04,34,11.90
2009,07,24,04,35,11.90
2009,07,24,04,36,11.90
2009,07,24,04,37,11.90
2009,07,24,04,38,11.90
2009,07,24,04,39,11.90
2009,07,24,04,40,11.90
2009,07,24,04,41,11.90
2009,07,24,04,42,11.90
2009,07,24,04,43,11.90
2009,07,24,04,44,11.90
2009,07,24,04,45,11.90
2009,07,24,04,46,11.90
2009,07,24,04,47,11.90
2009,07,24,04,48,11.90
2009,07,24,04,49,11.90
2009,07,24,04,50,11.90
2009,07,24,04,51,11.90
2009,07,24,04,52,11.90
2009,07,24,04,53,11.90
2009,07,24,04,54,11.90
2009,07,24,04,55,11.90
2009,07,24,04,56,11.90
2009,07,24,04,57,11.90
2009,07,24,04,58,11.90
2009,07,24,04,59,11.90
2009,07,24,05,00,11.90
2009,07,24,05,01,11.90
2009,07,24,05,02,11.90
2009,07,24,05,03,11.90
2009,07,24,05,04,11.90
2009,07,24,05,05,11.90
2009,07,24,05,06,11.90
2009,07,24,05,07,11.90
2009,07,24,05,08,11.90
2009,07,24,05,09,11.90
2009,07,24,05,10,11.90
2009,07,24,05,11,11.90
2009,07,24,05,12,11.90
2009,07,24,05,13,11.90
2009,07,24,05,14,11.90
2009,07,24,05,15,11.90
2009,07,24,05,16,11.90
2009,07,24,05,17,11.90
2009,07,24,05,18,11.90
2009,07,24,05,19,11.90
2009,07,24,05,20,11.90
2009,07,24,05,21,11.90
2009,07,24,05,22,11.90
2009,07,24,05,23,11.90
2009,07,24,05,24,11.90
2009,07,24,05,25,11.90
2009,07,24,05,26,11.90
2009,07,24,05,27,11.90
2009,07,24,05,28,11.90
2009,07,24,05,29,11.80
2009,07,24,05,30,11.80
2009,07,24,05,31,11.80
2009,07,24,05,32,11.80
2009,07,24,05,33,11.80
2009,07,24,05,34,11.70
2009,07,24,05,35,11.60
2009,07,24,05,36,11.60
2009,07,24,05,37,11.50
2009,07,24,05,38,11.40
2009,07,24,05,39,11.40
2009,07,24,05,40,11.30
2009,07,24,05,41,11.30
2009,07,24,05,42,11.30
2009,07,24,05,43,11.30
2009,07,24,05,44,11.20
2009,07,24,05,45,11.20
2009,07,24,05,46,11.20
2009,07,24,05,47,11.20
2009,07,24,05,48,11.20
2009,07,24,05,49,11.20
2009,07,24,05,50,11.20
2009,07,24,05,51,11.20
2009,07,24,05,52,11.20
2009,07,24,05,53,11.10
2009,07,24,05,54,11.10
2009,07,24,05,55,11.10
2009,07,24,05,56,11.10
2009,07,24,05,57,11.10
2009,07,24,05,58,11.20
2009,07,24,05,59,11.20
2009,07,24,06,00,11.20
2009,07,24,06,01,11.20
2009,07,24,06,02,11.20
2009,07,24,06,03,11.20
2009,07,24,06,04,11.20
2009,07,24,06,05,11.20
2009,07,24,06,06,11.20
2009,07,24,06,07,11.20
2009,07,24,06,08,11.20
2009,07,24,06,09,11.20
2009,07,24,06,10,11.20
2009,07,24,06,11,11.20
2009,07,24,06,12,11.20
2009,07,24,06,13,11.20
2009,07,24,06,14,11.20
2009,07,24,06,15,11.20
2009,07,24,06,16,11.20
2009,07,24,06,17,11.20
2009,07,24,06,18,11.20
2009,07,24,06,19,11.20
2009,07,24,06,20,11.20
2009,07,24,06,21,11.20
2009,07,24,06,22,11.10
2009,07,24,06,23,11.10
2009,07,24,06,24,11.10
2009,07,24,06,25,11.10
2009,07,24,06,26,11.10
2009,07,24,06,27,11.10
2009,07,24,06,28,11.10
2009,07,24,06,29,11.10
2009,07,24,06,30,11.10
2009,07,24,06,31,11.10
2009,07,24,06,32,11.10
2009,07,24,06,33,11.10
2009,07,24,06,34,11.10
2009,07,24,06,35,11.10
2009,07,24,06,36,11.20
2009,07,24,06,37,11.20
2009,07,24,06,38,11.20
2009,07,24,06,39,11.20
2009,07,24,06,40,11.30
2009,07,24,06,41,11.30
2009,07,24,06,42,11.40
2009,07,24,06,43,11.40
2009,07,24,06,44,11.40
2009,07,24,06,45,11.40
2009,07,24,06,46,11.50
2009,07,24,06,47,11.60
2009,07,24,06,48,11.60
2009,07,24,06,49,11.60
2009,07,24,06,50,11.60
2009,07,24,06,51,11.70
2009,07,24,06,52,11.80
2009,07,24,06,53,11.80
2009,07,24,06,54,11.80
2009,07,24,06,55,11.90
2009,07,24,06,56,11.90
2009,07,24,06,57,12.00
2009,07,24,06,58,12.00
2009,07,24,06,59,12.10
2009,07,24,07,00,12.10
2009,07,24,07,01,12.20
2009,07,24,07,02,12.20
2009,07,24,07,03,12.30
2009,07,24,07,04,12.30
2009,07,24,07,05,12.30
2009,07,24,07,06,12.40
2009,07,24,07,07,12.50
2009,07,24,07,08,12.50
2009,07,24,07,09,12.60
2009,07,24,07,10,12.70
2009,07,24,07,11,12.80
2009,07,24,07,12,12.80
2009,07,24,07,13,12.80
2009,07,24,07,14,12.90
2009,07,24,07,15,12.90
2009,07,24,07,16,13.00
2009,07,24,07,17,13.00
2009,07,24,07,18,13.00
2009,07,24,07,19,13.10
2009,07,24,07,20,13.10
2009,07,24,07,21,13.10
2009,07,24,07,22,13.20
2009,07,24,07,23,13.20
2009,07,24,07,24,13.20
2009,07,24,07,25,13.20
2009,07,24,07,26,13.20
2009,07,24,07,27,13.20
2009,07,24,07,28,13.20
2009,07,24,07,29,13.20
2009,07,24,07,30,13.20
2009,07,24,07,31,13.20
2009,07,24,07,32,13.20
2009,07,24,07,33,13.20
2009,07,24,07,34,13.30
2009,07,24,07,35,13.30
2009,07,24,07,36,13.30
2009,07,24,07,37,13.30
2009,07,24,07,38,13.30
2009,07,24,07,39,13.30
2009,07,24,07,40,13.30
2009,07,24,07,41,13.30
2009,07,24,07,42,13.30
2009,07,24,07,43,13.30
2009,07,24,07,44,13.40
2009,07,24,07,45,13.50
2009,07,24,07,46,13.60
2009,07,24,07,47,13.60
2009,07,24,07,48,13.60
2009,07,24,07,49,13.60
2009,07,24,07,50,13.60
2009,07,24,07,51,13.60
2009,07,24,07,52,13.60
2009,07,24,07,53,13.60
2009,07,24,07,54,13.60
2009,07,24,07,55,13.60
2009,07,24,07,56,13.50
2009,07,24,07,57,13.50
2009,07,24,07,58,13.40
2009,07,24,07,59,13.40
2009,07,24,08,00,13.30
2009,07,24,08,01,13.30
2009,07,24,08,02,13.30
2009,07,24,08,03,13.20
2009,07,24,08,04,13.20
2009,07,24,08,05,13.20
2009,07,24,08,06,13.20
2009,07,24,08,07,13.20
2009,07,24,08,08,13.10
2009,07,24,08,09,13.00
2009,07,24,08,10,13.00
2009,07,24,08,11,12.90
2009,07,24,08,12,12.80
2009,07,24,08,13,12.80
2009,07,24,08,14,12.80
2009,07,24,08,15,12.80
2009,07,24,08,16,12.80
2009,07,24,08,17,12.80
2009,07,24,08,18,12.80
2009,07,24,08,19,12.80
2009,07,24,08,20,12.90
2009,07,24,08,21,12.90
2009,07,24,08,22,13.00
2009,07,24,08,23,13.10
2009,07,24,08,24,13.20
2009,07,24,08,25,13.30
2009,07,24,08,26,13.30
2009,07,24,08,27,13.30
2009,07,24,08,28,13.30
2009,07,24,08,29,13.40
2009,07,24,08,30,13.40
2009,07,24,08,31,13.40
2009,07,24,08,32,13.50
2009,07,24,08,33,13.50
2009,07,24,08,34,13.50
2009,07,24,08,35,13.50
2009,07,24,08,36,13.50
2009,07,24,08,37,13.40
2009,07,24,08,38,13.30
2009,07,24,08,39,13.30
2009,07,24,08,40,13.30
2009,07,24,08,41,13.30
2009,07,24,08,42,13.30
2009,07,24,08,43,13.40
2009,07,24,08,44,13.40
2009,07,24,08,45,13.40
2009,07,24,08,46,13.40
2009,07,24,08,47,13.40
2009,07,24,08,48,13.40
2009,07,24,08,49,13.40
2009,07,24,08,50,13.40
2009,07,24,08,51,13.40
2009,07,24,08,52,13.40
2009,07,24,08,53,13.30
2009,07,24,08,54,13.30
2009,07,24,08,55,13.30
2009,07,24,08,56,13.30
2009,07,24,08,57,13.30
2009,07,24,08,58,13.20
2009,07,24,08,59,13.20
2009,07,24,09,00,13.10
2009,07,24,09,01,13.10
2009,07,24,09,02,13.00
2009,07,24,09,03,13.00
2009,07,24,09,04,13.00
2009,07,24,09,05,13.00
2009,07,24,09,06,13.10
2009,07,24,09,07,13.20
2009,07,24,09,08,13.20
2009,07,24,09,09,13.30
2009,07,24,09,10,13.40
2009,07,24,09,11,13.50
2009,07,24,09,12,13.50
2009,07,24,09,13,13.50
2009,07,24,09,14,13.50
2009,07,24,09,15,13.60
2009,07,24,09,16,13.60
2009,07,24,09,17,13.70
2009,07,24,09,18,13.70
2009,07,24,09,19,13.80
2009,07,24,09,20,13.90
2009,07,24,09,21,14.00
2009,07,24,09,22,14.10
2009,07,24,09,23,14.10
2009,07,24,09,24,14.20
2009,07,24,09,25,14.30
2009,07,24,09,26,14.40
2009,07,24,09,27,14.50
2009,07,24,09,28,14.60
2009,07,24,09,29,14.70
2009,07,24,09,30,14.70
2009,07,24,09,31,14.80
2009,07,24,09,32,14.90
2009,07,24,09,33,14.80
2009,07,24,09,34,14.90
2009,07,24,09,35,14.80
2009,07,24,09,36,14.70
2009,07,24,09,37,14.50
2009,07,24,09,38,14.40
2009,07,24,09,39,14.30
2009,07,24,09,40,14.30
2009,07,24,09,41,14.20
2009,07,24,09,42,14.20
2009,07,24,09,43,14.30
2009,07,24,09,44,14.30
2009,07,24,09,45,14.30
2009,07,24,09,46,14.30
2009,07,24,09,47,14.40
2009,07,24,09,48,14.40
2009,07,24,09,49,14.50
2009,07,24,09,50,14.50
2009,07,24,09,51,14.40
2009,07,24,09,52,14.50
2009,07,24,09,53,14.50
2009,07,24,09,54,14.50
2009,07,24,09,55,14.50
2009,07,24,09,56,14.50
2009,07,24,09,57,14.50
2009,07,24,09,58,14.40
2009,07,24,09,59,14.40
2009,07,24,10,00,14.50
2009,07,24,10,01,14.50
2009,07,24,10,02,14.50
2009,07,24,10,03,14.40
2009,07,24,10,04,14.40
2009,07,24,10,05,14.50
2009,07,24,10,06,14.50
2009,07,24,10,07,14.50
2009,07,24,10,08,14.60
2009,07,24,10,09,14.60
2009,07,24,10,10,14.60
2009,07,24,10,11,14.50
2009,07,24,10,12,14.50
2009,07,24,10,13,14.50
2009,07,24,10,14,14.50
2009,07,24,10,15,14.50
2009,07,24,10,16,14.50
2009,07,24,10,17,14.50
2009,07,24,10,18,14.50
2009,07,24,10,19,14.50
2009,07,24,10,20,14.50
2009,07,24,10,21,14.50
2009,07,24,10,22,14.50
2009,07,24,10,23,14.40
2009,07,24,10,24,14.40
2009,07,24,10,25,14.50
2009,07,24,10,26,14.60
2009,07,24,10,27,14.60
2009,07,24,10,28,14.50
2009,07,24,10,29,14.50
2009,07,24,10,30,14.60
2009,07,24,10,31,14.50
2009,07,24,10,32,14.50
2009,07,24,10,33,14.40
2009,07,24,10,34,14.40
2009,07,24,10,35,14.50
2009,07,24,10,36,14.50
2009,07,24,10,37,14.60
2009,07,24,10,38,14.80
2009,07,24,10,39,14.80
2009,07,24,10,40,14.90
2009,07,24,10,41,15.00
2009,07,24,10,42,15.00
2009,07,24,10,43,15.10
2009,07,24,10,44,15.20
2009,07,24,10,45,15.20
2009,07,24,10,46,15.20
2009,07,24,10,47,15.30
2009,07,24,10,48,15.30
2009,07,24,10,49,15.40
2009,07,24,10,50,15.50
2009,07,24,10,51,15.50
2009,07,24,10,52,15.50
2009,07,24,10,53,15.60
2009,07,24,10,54,15.60
2009,07,24,10,55,15.70
2009,07,24,10,56,15.80
2009,07,24,10,57,15.80
2009,07,24,10,58,15.80
2009,07,24,10,59,15.90
2009,07,24,11,00,16.00
2009,07,24,11,01,16.10
2009,07,24,11,02,16.10
2009,07,24,11,03,16.20
2009,07,24,11,04,16.20
2009,07,24,11,05,16.10
2009,07,24,11,06,16.10
2009,07,24,11,07,16.10
2009,07,24,11,08,16.00
2009,07,24,11,09,15.90
2009,07,24,11,10,15.90
2009,07,24,11,11,15.90
2009,07,24,11,12,15.80
2009,07,24,11,13,15.90
2009,07,24,11,14,16.10
2009,07,24,11,15,16.10
2009,07,24,11,16,16.20
2009,07,24,11,17,16.30
2009,07,24,11,18,16.40
2009,07,24,11,19,16.40
2009,07,24,11,20,16.40
2009,07,24,11,21,16.30
2009,07,24,11,22,16.30
2009,07,24,11,23,16.20
2009,07,24,11,24,16.20
2009,07,24,11,25,16.00
2009,07,24,11,26,15.90
2009,07,24,11,27,15.80
2009,07,24,11,28,15.60
2009,07,24,11,29,15.60
2009,07,24,11,30,15.50
2009,07,24,11,31,15.50
2009,07,24,11,32,15.50
2009,07,24,11,33,15.40
2009,07,24,11,34,15.40
2009,07,24,11,35,15.40
2009,07,24,11,36,15.50
2009,07,24,11,37,15.50
2009,07,24,11,38,15.60
2009,07,24,11,39,15.70
2009,07,24,11,40,15.80
2009,07,24,11,41,15.90
2009,07,24,11,42,16.00
2009,07,24,11,43,16.20
2009,07,24,11,44,16.20
2009,07,24,11,45,16.30
2009,07,24,11,46,16.40
2009,07,24,11,47,16.40
2009,07,24,11,48,16.50
2009,07,24,11,49,16.70
2009,07,24,11,50,16.70
2009,07,24,11,51,16.70
2009,07,24,11,52,16.70
2009,07,24,11,53,16.70
2009,07,24,11,54,16.70
2009,07,24,11,55,16.70
2009,07,24,11,56,16.70
2009,07,24,11,57,16.80
2009,07,24,11,58,16.90
2009,07,24,11,59,17.00
2009,07,24,12,00,17.20
2009,07,24,12,01,17.30
2009,07,24,12,02,17.40
2009,07,24,12,03,17.50
2009,07,24,12,04,17.70
2009,07,24,12,05,17.80
2009,07,24,12,06,17.90
2009,07,24,12,07,18.10
2009,07,24,12,08,18.20
2009,07,24,12,09,18.20
2009,07,24,12,10,18.20
2009,07,24,12,11,18.20
2009,07,24,12,12,18.20
2009,07,24,12,13,18.30
2009,07,24,12,14,18.30
2009,07,24,12,15,18.20
2009,07,24,12,16,18.20
2009,07,24,12,17,18.30
2009,07,24,12,18,18.20
2009,07,24,12,19,18.20
2009,07,24,12,20,18.10
2009,07,24,12,21,18.00
2009,07,24,12,22,17.90
2009,07,24,12,23,17.90
2009,07,24,12,24,17.90
2009,07,24,12,25,17.90
2009,07,24,12,26,17.90
2009,07,24,12,27,17.90
2009,07,24,12,28,17.90
2009,07,24,12,29,17.90
2009,07,24,12,30,17.90
2009,07,24,12,31,17.90
2009,07,24,12,32,17.90
2009,07,24,12,33,17.90
2009,07,24,12,34,17.80
2009,07,24,12,35,17.90
2009,07,24,12,36,17.90
2009,07,24,12,37,17.90
2009,07,24,12,38,17.90
2009,07,24,12,39,17.90
2009,07,24,12,40,17.90
2009,07,24,12,41,17.90
2009,07,24,12,42,17.90
2009,07,24,12,43,17.90
2009,07,24,12,44,17.90
2009,07,24,12,45,18.00
2009,07,24,12,46,18.10
2009,07,24,12,47,18.10
2009,07,24,12,48,18.20
2009,07,24,12,49,18.20
2009,07,24,12,50,18.30
2009,07,24,12,51,18.40
2009,07,24,12,52,18.50
2009,07,24,12,53,18.50
2009,07,24,12,54,18.60
2009,07,24,12,55,18.80
2009,07,24,12,56,18.90
2009,07,24,12,57,18.90
2009,07,24,12,58,18.90
2009,07,24,12,59,18.90
2009,07,24,13,00,18.90
2009,07,24,13,01,18.90
2009,07,24,13,02,18.90
2009,07,24,13,03,18.90
2009,07,24,13,04,18.90
2009,07,24,13,05,19.00
2009,07,24,13,06,19.10
2009,07,24,13,07,19.10
2009,07,24,13,08,19.10
2009,07,24,13,09,19.10
2009,07,24,13,10,19.10
2009,07,24,13,11,19.10
2009,07,24,13,12,19.10
2009,07,24,13,13,19.10
2009,07,24,13,14,19.10
2009,07,24,13,15,19.10
2009,07,24,13,16,19.00
2009,07,24,13,17,18.90
2009,07,24,13,18,18.80
2009,07,24,13,19,18.70
2009,07,24,13,20,18.60
2009,07,24,13,21,18.60
2009,07,24,13,22,18.60
2009,07,24,13,23,18.60
2009,07,24,13,24,18.60
2009,07,24,13,25,18.60
2009,07,24,13,26,18.70
2009,07,24,13,27,18.70
2009,07,24,13,28,18.80
2009,07,24,13,29,18.80
2009,07,24,13,30,18.90
2009,07,24,13,31,19.00
2009,07,24,13,32,19.10
2009,07,24,13,33,19.10
2009,07,24,13,34,19.20
2009,07,24,13,35,19.30
2009,07,24,13,36,19.40
2009,07,24,13,37,19.50
2009,07,24,13,38,19.70
2009,07,24,13,39,19.70
2009,07,24,13,40,19.80
2009,07,24,13,41,19.70
2009,07,24,13,42,19.60
2009,07,24,13,43,19.60
2009,07,24,13,44,19.60
2009,07,24,13,45,19.60
2009,07,24,13,46,19.70
2009,07,24,13,47,19.70
2009,07,24,13,48,19.70
2009,07,24,13,49,19.80
2009,07,24,13,50,19.80
2009,07,24,13,51,19.70
2009,07,24,13,52,19.60
2009,07,24,13,53,19.50
2009,07,24,13,54,19.30
2009,07,24,13,55,19.10
2009,07,24,13,56,19.00
2009,07,24,13,57,18.90
2009,07,24,13,58,18.80
2009,07,24,13,59,18.80
2009,07,24,14,00,18.80
2009,07,24,14,01,18.90
2009,07,24,14,02,18.90
2009,07,24,14,03,18.80
2009,07,24,14,04,18.50
2009,07,24,14,05,18.40
2009,07,24,14,06,18.20
2009,07,24,14,07,18.10
2009,07,24,14,08,18.00
2009,07,24,14,09,17.80
2009,07,24,14,10,17.60
2009,07,24,14,11,17.60
2009,07,24,14,12,17.50
2009,07,24,14,13,17.40
2009,07,24,14,14,17.40
2009,07,24,14,15,17.50
2009,07,24,14,16,17.50
2009,07,24,14,17,17.70
2009,07,24,14,18,17.60
2009,07,24,14,19,17.50
2009,07,24,14,20,17.50
2009,07,24,14,21,17.40
2009,07,24,14,22,17.50
2009,07,24,14,23,17.60
2009,07,24,14,24,17.70
2009,07,24,14,25,17.70
2009,07,24,14,26,17.80
2009,07,24,14,27,17.90
2009,07,24,14,28,17.90
2009,07,24,14,29,17.90
2009,07,24,14,30,18.00
2009,07,24,14,31,18.10
2009,07,24,14,32,18.10
2009,07,24,14,33,18.20
2009,07,24,14,34,18.20
2009,07,24,14,35,18.20
2009,07,24,14,36,18.20
2009,07,24,14,37,18.20
2009,07,24,14,38,18.20
2009,07,24,14,39,18.20
2009,07,24,14,40,18.30
2009,07,24,14,41,18.40
2009,07,24,14,42,18.40
2009,07,24,14,43,18.40
2009,07,24,14,44,18.30
2009,07,24,14,45,18.30
2009,07,24,14,46,18.30
2009,07,24,14,47,18.40
2009,07,24,14,48,18.60
2009,07,24,14,49,18.70
2009,07,24,14,50,18.80
2009,07,24,14,51,18.90
2009,07,24,14,52,19.10
2009,07,24,14,53,19.30
2009,07,24,14,54,19.40
2009,07,24,14,55,19.60
2009,07,24,14,56,19.70
2009,07,24,14,57,19.80
2009,07,24,14,58,19.90
2009,07,24,14,59,20.00
2009,07,24,15,00,20.10
2009,07,24,15,01,20.20
2009,07,24,15,02,20.10
2009,07,24,15,03,19.80
2009,07,24,15,04,19.30
2009,07,24,15,05,19.00
2009,07,24,15,06,18.70
2009,07,24,15,07,18.60
2009,07,24,15,08,18.50
2009,07,24,15,09,18.40
2009,07,24,15,10,18.50
2009,07,24,15,11,18.40
2009,07,24,15,12,18.50
2009,07,24,15,13,18.50
2009,07,24,15,14,18.60
2009,07,24,15,15,18.70
2009,07,24,15,16,18.80
2009,07,24,15,17,18.90
2009,07,24,15,18,18.90
2009,07,24,15,19,19.00
2009,07,24,15,20,19.10
2009,07,24,15,21,19.20
2009,07,24,15,22,19.30
2009,07,24,15,23,19.40
2009,07,24,15,24,19.40
2009,07,24,15,25,19.40
2009,07,24,15,26,19.60
2009,07,24,15,27,19.60
2009,07,24,15,28,19.60
2009,07,24,15,29,19.60
2009,07,24,15,30,19.60
2009,07,24,15,31,19.60
2009,07,24,15,32,19.50
2009,07,24,15,33,19.50
2009,07,24,15,34,19.50
2009,07,24,15,35,19.60
2009,07,24,15,36,19.80
2009,07,24,15,37,20.00
2009,07,24,15,38,20.10
2009,07,24,15,39,20.30
2009,07,24,15,40,20.50
2009,07,24,15,41,20.50
2009,07,24,15,42,20.70
2009,07,24,15,43,20.80
2009,07,24,15,44,21.00
2009,07,24,15,45,21.10
2009,07,24,15,46,21.30
2009,07,24,15,47,21.30
2009,07,24,15,48,21.40
2009,07,24,15,49,21.50
2009,07,24,15,50,21.60
2009,07,24,15,51,21.70
2009,07,24,15,52,21.90
2009,07,24,15,53,21.90
2009,07,24,15,54,22.00
2009,07,24,15,55,22.00
2009,07,24,15,56,22.00
2009,07,24,15,57,22.10
2009,07,24,15,58,22.20
2009,07,24,15,59,22.30
2009,07,24,16,00,22.30
2009,07,24,16,01,22.30
2009,07,24,16,02,22.20
2009,07,24,16,03,22.10
2009,07,24,16,04,22.00
2009,07,24,16,05,22.00
2009,07,24,16,06,22.00
2009,07,24,16,07,22.00
2009,07,24,16,08,22.00
2009,07,24,16,09,21.90
2009,07,24,16,10,21.80
2009,07,24,16,11,21.70
2009,07,24,16,12,21.90
2009,07,24,16,13,22.00
2009,07,24,16,14,22.10
2009,07,24,16,15,22.10
2009,07,24,16,16,22.00
2009,07,24,16,17,22.00
2009,07,24,16,18,22.00
2009,07,24,16,19,22.10
2009,07,24,16,20,22.20
2009,07,24,16,21,22.20
2009,07,24,16,22,22.30
2009,07,24,16,23,22.30
2009,07,24,16,24,22.30
2009,07,24,16,25,22.50
2009,07,24,16,26,22.50
2009,07,24,16,27,22.50
2009,07,24,16,28,22.50
2009,07,24,16,29,22.40
2009,07,24,16,30,22.40
2009,07,24,16,31,22.40
2009,07,24,16,32,22.40
2009,07,24,16,33,22.50
2009,07,24,16,34,22.60
2009,07,24,16,35,22.80
2009,07,24,16,36,22.90
2009,07,24,16,37,23.00
2009,07,24,16,38,23.10
2009,07,24,16,39,23.10
2009,07,24,16,40,23.10
2009,07,24,16,41,23.20
2009,07,24,16,42,23.20
2009,07,24,16,43,23.20
2009,07,24,16,44,23.20
2009,07,24,16,45,23.20
2009,07,24,16,46,23.20
2009,07,24,16,47,23.30
2009,07,24,16,48,23.30
2009,07,24,16,49,23.30
2009,07,24,16,50,23.20
2009,07,24,16,51,23.20
2009,07,24,16,52,23.20
2009,07,24,16,53,23.30
2009,07,24,16,54,23.30
2009,07,24,16,55,23.40
2009,07,24,16,56,23.40
2009,07,24,16,57,23.40
2009,07,24,16,58,23.10
2009,07,24,16,59,22.90
2009,07,24,17,00,22.70
2009,07,24,17,01,22.50
2009,07,24,17,02,22.40
2009,07,24,17,03,22.30
2009,07,24,17,04,22.30
2009,07,24,17,05,22.20
2009,07,24,17,06,22.20
2009,07,24,17,07,22.10
2009,07,24,17,08,22.10
2009,07,24,17,09,22.00
2009,07,24,17,10,22.00
2009,07,24,17,11,22.00
2009,07,24,17,12,22.10
2009,07,24,17,13,22.10
2009,07,24,17,14,22.00
2009,07,24,17,15,22.00
2009,07,24,17,16,22.00
2009,07,24,17,17,22.00
2009,07,24,17,18,22.00
2009,07,24,17,19,22.00